(515214) = 2006 UC363 = 2011 YJ43

Discovered at Mount Lemmon on 2011-11-18 by Mt. Lemmon Survey.

Orbit

Orbit type: Main Belt

Note: WebGL enabled browser required.

epoch2023-09-13.0
epoch JD2460200.5
perihelion date2022-01-31.68384
perihelion JD2459611.18384
argument of perihelion (°)332.67546
ascending node (°)102.98408
inclination (°)6.22998
eccentricity0.1550631
perihelion distance (AU)2.5330022
Tisserand w.r.t. Jupiter3.2
ΔV w.r.t. Earth (km/sec)10.2
semimajor axis (AU)2.9978596
mean anomaly (°)111.90133
mean daily motion (°/day)0.18988340
aphelion distance (AU)3.463
period (years)5.19
P-vector [x]0.24504170
P-vector [y]0.90815023
P-vector [z]0.33943736
Q-vector [x]-0.96372847
Q-vector [y]0.18997643
Q-vector [z]0.18744703
absolute magnitude16.84
phase slope0.15
uncertainty0
referenceMPEC 2024-C06
observations used182
oppositions9
arc length (days)6019
first opposition used2006
last opposition used2023
residual rms (arc-secs)0.90
perturbers coarse indicatorM-v
perturbers precise indicator003Ek
first observation date used2006-10-23.0
last observation date used2023-04-16.0
computer nameMPCLINUX
Minimum Orbit Intersection Distances (in AU)
for orbit epoch: 2460000.5, reference: E2023-H35
Mercury2.22739
Venus1.81362
Earth1.54915
Mars0.97036
Jupiter1.79837
Saturn6.48306
Uranus15.3609
Neptune26.9381

Observations

187 total observations over interval: 2006 10 23.44074 – 2023 04 16.284365
These data are available for download (format description).

Date (UT) J2000 RA J2000 Dec Magn Location Ref
2006 10 23.44074 08 39 45.68 +18 33 40.5 21.4 V G96 – Mt. Lemmon Survey MPC 108703
2006 10 23.44806 08 39 46.22 +18 33 39.9 20.6 V G96 – Mt. Lemmon Survey MPC 108703
2006 10 23.45532 08 39 46.72 +18 33 38.7 21.2 V G96 – Mt. Lemmon Survey MPC 108703
2006 10 23.46276 08 39 47.16 +18 33 37.7 22.1 V G96 – Mt. Lemmon Survey MPC 108703
2007 01 25.23966 08 53 35.20 +21 45 52.2 20.5 V 691 – Steward Observatory, Kitt Peak-Spacewatch MPS 508614
2007 01 25.25780 08 53 34.19 +21 45 59.1 20.5 V 691 – Steward Observatory, Kitt Peak-Spacewatch MPS 508614
2007 01 25.27570 08 53 33.21 +21 46 05.1 20.4 V 691 – Steward Observatory, Kitt Peak-Spacewatch MPS 508614
2010 09 11.36080 23 30 01.72 -12 39 28.6 20.9 V G96 – Mt. Lemmon Survey MPS 508614
2010 09 11.36755 23 30 01.40 -12 39 31.2 20.8 V G96 – Mt. Lemmon Survey MPS 508614
2010 09 11.37432 23 30 01.08 -12 39 33.1 20.9 V G96 – Mt. Lemmon Survey MPS 508614
2010 09 11.38102 23 30 00.79 -12 39 35.6 20.6 V G96 – Mt. Lemmon Survey MPS 508614
2011 11 18.49575 07 41 16.80 +20 06 11.3 20.2 V G96 – Mt. Lemmon Survey MPS 423750
2011 11 18.50322 07 41 16.90 +20 06 11.7 20.8 V G96 – Mt. Lemmon Survey MPS 423750
2011 11 18.51079 07 41 16.98 +20 06 12.1 21.5 V G96 – Mt. Lemmon Survey MPS 423750
2011 11 18.51833 07 41 17.05 +20 06 12.7 21.2 V G96 – Mt. Lemmon Survey MPS 423750
2011 12 27.23674 07 27 00.49 +22 08 35.1 20.6 V 691 – Steward Observatory, Kitt Peak-Spacewatch MPS 406063
2011 12 27.25455 07 26 59.57 +22 08 40.0 20.6 V 691 – Steward Observatory, Kitt Peak-Spacewatch MPS 406063
2011 12 27.27236 07 26 58.63 +22 08 44.8 20.1 V 691 – Steward Observatory, Kitt Peak-Spacewatch MPS 406063
2011 12 31.24687 07 23 33.08 +22 26 24.2 20.3 V 691 – Steward Observatory, Kitt Peak-Spacewatch MPS 406063
2011 12 31.26467 07 23 32.12 +22 26 29.0 20.4 V 691 – Steward Observatory, Kitt Peak-Spacewatch MPS 406063
2011 12 31.28246 07 23 31.09 +22 26 34.1 20.2 V 691 – Steward Observatory, Kitt Peak-Spacewatch MPS 406063
2012 01 04.23801 07 19 56.88 +22 44 08.9   691 – Steward Observatory, Kitt Peak-Spacewatch MPS 406063
2012 01 04.25624 07 19 55.88 +22 44 13.7   691 – Steward Observatory, Kitt Peak-Spacewatch MPS 406063
2012 01 04.27153 07 19 54.95 +22 44 18.3   691 – Steward Observatory, Kitt Peak-Spacewatch MPS 406063
2015 08 11.47589 22 35 05.322 -16 03 18.46 21.3 w F51 – Pan-STARRS 1, Haleakala MPS 619814
2015 08 11.48781 22 35 04.824 -16 03 22.92 21.2 w F51 – Pan-STARRS 1, Haleakala MPS 619814
2015 08 11.49973 22 35 04.352 -16 03 27.09 21.1 w F51 – Pan-STARRS 1, Haleakala MPS 619814
2015 08 11.51152 22 35 03.851 -16 03 31.49 21.3 w F51 – Pan-STARRS 1, Haleakala MPS 619814
2015 08 12.46879 22 34 25.771 -16 09 16.06 21.2 w F51 – Pan-STARRS 1, Haleakala MPS 619814
2015 08 12.48071 22 34 25.274 -16 09 20.33 21.3 w F51 – Pan-STARRS 1, Haleakala MPS 619814
2015 08 12.49261 22 34 24.781 -16 09 24.60 21.1 w F51 – Pan-STARRS 1, Haleakala MPS 619814
2015 08 12.50453 22 34 24.271 -16 09 28.98 21.2 w F51 – Pan-STARRS 1, Haleakala MPS 619814
2015 10 03.27417 22 00 11.636 -19 44 16.38 21.5 w F51 – Pan-STARRS 1, Haleakala MPS 628720
2015 10 03.28515 22 00 11.410 -19 44 16.74 21.2 w F51 – Pan-STARRS 1, Haleakala MPS 628720
2015 10 03.30710 22 00 10.954 -19 44 17.83 21.4 w F51 – Pan-STARRS 1, Haleakala MPS 628720
2016 12 05.27348 05 42 02.42 +19 33 05.0 20.0 V G96 – Mt. Lemmon Survey MPS 749540
2016 12 05.28344 05 42 01.88 +19 33 05.8 19.9 V G96 – Mt. Lemmon Survey MPS 749540
2016 12 05.29319 05 42 01.36 +19 33 05.9 19.6 V G96 – Mt. Lemmon Survey MPS 749540
2016 12 18.38906 05 29 57.20 +19 58 43.1 20.0 V G96 – Mt. Lemmon Survey MPS 752847
2016 12 18.39339 05 29 56.94 +19 58 43.3 20.0 V G96 – Mt. Lemmon Survey MPS 752847
2016 12 18.39770 05 29 56.72 +19 58 44.3 19.6 V G96 – Mt. Lemmon Survey MPS 752847
2016 12 18.40198 05 29 56.42 +19 58 44.5 19.9 V G96 – Mt. Lemmon Survey MPS 752847
2018 03 17.44234 12 45 25.511 +04 52 24.01 21.2 w F51 – Pan-STARRS 1, Haleakala MPS 876126
2018 03 17.45634 12 45 24.880 +04 52 28.55 21.4 w F51 – Pan-STARRS 1, Haleakala MPS 876126
2018 03 17.47033 12 45 24.261 +04 52 33.32 21.2 w F51 – Pan-STARRS 1, Haleakala MPS 876126
2018 03 17.48436 12 45 23.632 +04 52 38.22 21.3 w F51 – Pan-STARRS 1, Haleakala MPS 876126
2018 03 19.39698 12 44 00.277 +05 03 22.20 21.1 w F51 – Pan-STARRS 1, Haleakala MPS 876126
2018 03 19.42285 12 43 59.083 +05 03 30.83 20.9 w F51 – Pan-STARRS 1, Haleakala MPS 876126
2018 03 19.43149 12 43 58.51 +05 03 32.8 21.8 G G96 – Mt. Lemmon Survey MPS 876126
2018 03 19.43594 12 43 58.479 +05 03 35.16 21.0 w F51 – Pan-STARRS 1, Haleakala MPS 876126
2018 03 19.43667 12 43 58.27 +05 03 34.3 21.3 G G96 – Mt. Lemmon Survey MPS 876126
2018 03 19.44184 12 43 58.05 +05 03 36.5 21.0 G G96 – Mt. Lemmon Survey MPS 876126
2018 03 19.44701 12 43 57.75 +05 03 38.5 21.2 G G96 – Mt. Lemmon Survey MPS 876126
2018 04 12.25242 12 26 04.94 +06 55 17.2 21.6 G G96 – Mt. Lemmon Survey MPS 881749
2018 04 12.25758 12 26 04.64 +06 55 17.8 21.6 G G96 – Mt. Lemmon Survey MPS 881749
2018 04 12.26274 12 26 04.45 +06 55 18.9 21.5 G G96 – Mt. Lemmon Survey MPS 881749
2018 04 12.26792 12 26 04.21 +06 55 20.6 21.4 G G96 – Mt. Lemmon Survey MPS 881749
2018 04 13.35737 12 25 19.237 +06 58 56.33 21.1 w F51 – Pan-STARRS 1, Haleakala MPS 884418
2018 04 13.36993 12 25 18.694 +06 58 58.86 21.3 w F51 – Pan-STARRS 1, Haleakala MPS 884418
2018 04 13.38249 12 25 18.153 +06 59 01.19 21.3 w F51 – Pan-STARRS 1, Haleakala MPS 884418
2018 04 13.39507 12 25 17.636 +06 59 03.62 21.4 w F51 – Pan-STARRS 1, Haleakala MPS 884418
2018 04 20.26594 12 20 54.21 +07 17 38.8 21.4 G G96 – Mt. Lemmon Survey MPS 884418
2018 04 20.27111 12 20 54.00 +07 17 39.9 21.9 G G96 – Mt. Lemmon Survey MPS 884418
2018 04 20.28146 12 20 53.57 +07 17 40.6 21.9 G G96 – Mt. Lemmon Survey MPS 884418
2019 05 27.44228 16 50 18.632 -17 47 31.55 22.2 w F51 – Pan-STARRS 1, Haleakala MPS 1012505
2019 05 27.47801 16 50 16.682 -17 47 31.72 22.1 w F51 – Pan-STARRS 1, Haleakala MPS 1012505
2020 07 18.46275 21 36 36.455 -18 55 05.88 21.5 w F51 – Pan-STARRS 1, Haleakala MPS 1224872
2020 07 18.47349 21 36 36.073 -18 55 08.91 21.5 w F51 – Pan-STARRS 1, Haleakala MPS 1224872
2020 07 18.48423 21 36 35.685 -18 55 12.29 21.4 w F51 – Pan-STARRS 1, Haleakala MPS 1224872
2020 07 18.49494 21 36 35.278 -18 55 15.60 21.5 w F51 – Pan-STARRS 1, Haleakala MPS 1224872
2020 07 22.46116 21 34 08.245 -19 15 30.76 21.5 w F51 – Pan-STARRS 1, Haleakala MPS 1224872
2020 07 22.47205 21 34 07.798 -19 15 34.16 21.3 w F51 – Pan-STARRS 1, Haleakala MPS 1224872
2020 07 22.48288 21 34 07.363 -19 15 37.47 21.4 w F51 – Pan-STARRS 1, Haleakala MPS 1224872
2020 07 22.49360 21 34 06.928 -19 15 40.82 21.3 w F51 – Pan-STARRS 1, Haleakala MPS 1224872
2020 07 28.46045 21 30 00.274 -19 47 06.62 21.3 w F51 – Pan-STARRS 1, Haleakala MPS 1227963
2020 07 28.47248 21 29 59.713 -19 47 10.37 21.1 w F51 – Pan-STARRS 1, Haleakala MPS 1227963
2020 07 28.48450 21 29 59.188 -19 47 14.28 21.2 w F51 – Pan-STARRS 1, Haleakala MPS 1227963
2020 07 28.49651 21 29 58.621 -19 47 18.08 21.1 w F51 – Pan-STARRS 1, Haleakala MPS 1227963
2020 08 10.33275 21 20 00.859 -20 54 26.93 21.1 w F51 – Pan-STARRS 1, Haleakala MPS 1239218
2020 08 10.34310 21 20 00.344 -20 54 30.22 21.2 w F51 – Pan-STARRS 1, Haleakala MPS 1239218
2020 08 10.35343 21 19 59.833 -20 54 33.32 21.0 w F51 – Pan-STARRS 1, Haleakala MPS 1239218
2020 08 10.36378 21 19 59.305 -20 54 36.32 21.2 w F51 – Pan-STARRS 1, Haleakala MPS 1239218
2020 08 11.34302 21 19 11.878 -20 59 29.53 21.0 w F51 – Pan-STARRS 1, Haleakala MPS 1239218
2020 08 11.35334 21 19 11.369 -20 59 32.53 21.3 w F51 – Pan-STARRS 1, Haleakala MPS 1239218
2020 08 11.36366 21 19 10.853 -20 59 35.91 21.1 w F51 – Pan-STARRS 1, Haleakala MPS 1239218
2020 08 11.37398 21 19 10.333 -20 59 38.87 21.0 w F51 – Pan-STARRS 1, Haleakala MPS 1239218
2020 08 16.37458 21 15 08.491 -21 23 39.71 21.1 w F51 – Pan-STARRS 1, Haleakala MPS 1239218
2020 08 16.38430 21 15 08.014 -21 23 42.46 21.2 w F51 – Pan-STARRS 1, Haleakala MPS 1239218
2020 08 16.39399 21 15 07.534 -21 23 45.22 21.1 w F51 – Pan-STARRS 1, Haleakala MPS 1239218
2020 09 11.30218 20 57 54.713 -22 49 38.54 21.9 w F51 – Pan-STARRS 1, Haleakala MPS 1285141
2020 09 11.31356 20 57 54.381 -22 49 40.00 21.6 w F51 – Pan-STARRS 1, Haleakala MPS 1285141
2020 09 11.32494 20 57 54.039 -22 49 41.28 21.7 w F51 – Pan-STARRS 1, Haleakala MPS 1285141
2020 09 12.24461 20 57 29.522 -22 51 18.36 21.8 w F52 – Pan-STARRS 2, Haleakala MPS 1285141
